www.pogodaiklimat.ru

Погода и климат >> Архив погоды >> Антигуа и Барбуда >> V.C. Bird Int Airport


ПОГОДА в V.C. Bird Int Airport

  • Прогноз погоды в V.C. Bird Int Airport
  • Монитор погоды в V.C. Bird Int Airport
  • Климат города

АРХИВ ПОГОДЫ в V.C. Bird Int Airport

Время (UTC), дата Ветер
(напр.,м/с)
 
Видим.   Явления Облачность Т
(С)
Тd
(С)
f
(%)
Тe
(С)
Тes
(С)
Комфортность P
(гПа)
Po
(гПа)
Тmin
(С)
Tmax
(С)
R
(мм)
R24
(мм)
S
(см)
12 9.10 В 4 28 км пыль 9/3 600 м
[Cu Sc Ac lent Ci sp]
+28.4 +23.3 74 +38 +40 очень
душно
1014.6 1012.3 +26.2 +30.6
15 9.10 В 6 30 км 9/4 600 м
[Cu Sc Ac lent Ci sp]
+29.3 +23.9 73 +41 +43 опасность
перегрева
1015.0 1012.7
18 9.10 В 7 28 км осадки на расстоянии 9/6 540 м
[Cu Sc Ac lent Ci sp]
+28.7 +24.3 77 +40 +41 очень
душно
1013.8 1011.5 +26.2 +30.6
21 9.10 ЮВ 4 16 км осадки на расстоянии {ливн. осадки} 9/8 540 м
[Cu Sc Ac lent Ci sp]
+26.9 +22.8 78 +36 +36 очень
душно
1013.1 1010.8
00 10.10 В 5 28 км пыль {ливн. осадки} 9/5 540 м
[Cu Sc Ci sp]
+26.7 +22.9 80 +36 +36 очень
душно
1013.5 1011.2 +25.0 +30.6 3
03 10.10 В 6 28 км пыль 9/5 500 м
[Cu Sc Ci sp]
+27.3 +23.4 79 +37 +37 очень
душно
1014.1 1011.8
06 10.10 В 6 28 км пыль 8/3 540 м
[Cu med, cong Ci sp]
+27.1 +22.4 76 +36 +36 очень
душно
1012.2 1009.9 +25.0 +30.6
09 10.10 В 4 28 км пыль 8/5 540 м
[Cu med, cong Ci sp]
+26.9 +22.8 78 +36 +36 очень
душно
1011.6 1009.3
12 10.10 В 7 10 км осадки на расстоянии 8/6 450 м
[Cu Sc Ci sp]
+26.0 +22.5 81 +34 +35 очень
душно
1014.0 1011.7 +26.0 +30.6
15 10.10 В 6 26 км пыль 8/8 500 м
[Cu Sc Ci sp]
+28.9 +23.7 74 +40 +41 очень
душно
1014.3 1012.0
18 10.10 В 5 30 км 5/4 420 м
[Cb cap Ci ing]
+29.4 +23.5 71 +40 +45 очень
душно
1012.2 1009.9 +25.0 +29.8
21 10.10 В 4 28 км осадки на расстоянии 8/6 420 м
[Cb cap Ac lent Ci sp]
+27.5 +23.2 77 +37 +37 очень
душно
1011.5 1009.2
00 11.10 В 2 30 км 6/6 660 м
[Cu med, cong]
+26.8 +23.5 82 +36 +36 очень
душно
1012.3 1010.0 +25.4 +29.8
03 11.10 В 2 30 км {ливн. осадки} 5/5 540 м
[Cu med, cong]
+27.1 +23.2 79 +36 +36 очень
душно
1013.5 1011.2
06 11.10 нст 1 30 км {ливн. осадки} 3/3 540 м
[Cu med, cong]
+26.1 +23.1 84 +35 +35 очень
душно
1011.3 1009.0 +25.3 +29.8 0.9
12 11.10 В 4 28 км пыль 6/6 540 м
[Cu med, cong Ci sp]
+28.0 +23.6 77 +38 +39 очень
душно
1013.1 1010.8 +25.3 +29.8
15 11.10 ЮВ 5 18 км осадки на расстоянии 8/8 500 м
[Cu Sc]
+28.7 +23.5 74 +39 +41 очень
душно
1013.7 1011.4
18 11.10 В 4 28 км пыль {ливн. осадки} 5/5 540 м
[Cu Sc]
+30.4 +23.2 65 +41 +45 опасность
перегрева
1011.7 1009.4 +25.3 +30.4 0.0
21 11.10 В 2 28 км пыль {ливн. осадки} 9/3 570 м
[Cu Sc Ci sp]
+28.1 +23.1 74 +38 +38 очень
душно
1011.6 1009.3
00 12.10 В 3 26 км осадки на расстоянии {ливн. осадки} 9/3 480 м
[Cb cap Ci sp]
+27.4 +23.3 78 +37 +37 очень
душно
1013.0 1010.7 +25.4 +30.4 0.0
03 12.10 ЮВ 2 26 км осадки на расстоянии {ливн. осадки} 9/1 540 м
[Cu med, cong Ci sp]
+26.1 +23.5 86 +35 +35 очень
душно
1013.9 1011.6
06 12.10 штиль 0 28 км пыль {ливн. осадки} 9/3 600 м
[Cu med, cong Ci sp]
+25.6 +23.3 87 +34 +34 очень
душно
1012.2 1009.9 +24.4 +30.4 0.7
09 12.10 В 4 28 км пыль 9/4 600 м
[Cu med, cong Ci sp]
+26.4 +23.5 84 +36 +36 очень
душно
1012.4 1010.1
12 12.10 ЮВ 4 24 км осадки на расстоянии 8/6 420 м
[Cb cap Ac lent Ci sp]
+27.9 +23.9 79 +39 +39 очень
душно
1014.2 1011.9 +24.4 +30.4
15 12.10 В 5 18 км осадки на расстоянии 9/6 480 м
[Cu Sc Ac lent Ci sp]
+29.4 +24.1 73 +41 +43 опасность
перегрева
1015.0 1012.7
18 12.10 нст 1 26 км осадки на расстоянии {ливн. осадки} 9/4 480 м
[Cu Sc Ac As Ci ing]
+27.4 +24.3 83 +38 +44 очень
душно
1013.3 1011.0 +24.4 +30.9 1
21 12.10 нст 1 26 км слабый ливневой дождь 9/5 500 м
[Cu Sc Ac As Ci sp]
+26.3 +23.4 84 +36 +36 очень
душно
1013.4 1011.1
00 13.10 ЮВ 3 28 км пыль {ливн. осадки} 9/8 540 м
[Cu Sc Ci sp]
+26.7 +23.2 81 +36 +36 очень
душно
1014.4 1012.1 +25.5 +30.9 0.0
03 13.10 штиль 0 28 км пыль 9/1 540 м
[Cu med, cong Ci sp]
+25.3 +23.3 89 +34 +34 очень
душно
1014.8 1012.5
06 13.10 нст 1 28 км пыль 9/1 600 м
[Cu med, cong Ci sp]
+25.9 +23.7 88 +35 +35 очень
душно
1013.5 1011.2 +25.1 +30.9
09 13.10 ЮВ 2 28 км пыль 9/1 540 м
[Cu med, cong Ci sp]
+26.1 +23.5 86 +35 +35 очень
душно
1013.2 1010.9
12 13.10 ЮВ 5 28 км пыль 9/8 480 м
[Cb cap Ci sp]
+28.1 +23.6 77 +39 +39 очень
душно
1015.2 1012.9 +25.1 +30.9
15 13.10 В 6 28 км пыль 9/4 540 м
[Cu Sc Ac trans Ci sp]
+29.6 +24.2 73 +41 +44 опасность
перегрева
1015.9 1013.6
18 13.10 нст 1 16 км в посл. час ливневой дождь 9/6 420 м
[Cb cap Ac As Ci sp]
+26.7 +23.5 83 +36 +40 очень
душно
1014.5 1012.2 +25.1 +30.1 2
21 13.10 ЮВ 2 26 км осадки на расстоянии 9/4 480 м
[Cu Sc Ac As Ci sp]
+27.0 +23.1 79 +36 +37 очень
душно
1014.5 1012.2
00 14.10 штиль 0 28 км пыль 9/3 480 м
[Cu Sc Ci sp]
+26.2 +23.3 84 +35 +35 очень
душно
1016.3 1014.0 +25.3 +30.1
03 14.10 В 3 28 км осадки на расстоянии 9/4 480 м
[Cu med, cong Ci sp]
+26.4 +23.3 83 +36 +36 очень
душно
1016.1 1013.8
06 14.10 В 4 28 км пыль 9/1 540 м
[Cu med, cong Ci sp]
+25.7 +21.8 79 +33 +33 очень
душно
1015.4 1013.1 +25.1 +30.1
09 14.10 В 5 28 км пыль 9/3 500 м
[Cu med, cong Ci sp]
+26.1 +22.9 83 +35 +35 очень
душно
1014.8 1012.5
12 14.10 В 6 28 км пыль 9/3 600 м
[Cu med, cong Cs]
+28.4 +23.8 76 +39 +40 очень
душно
1016.1 1013.8 +25.1 +30.1
15 14.10 В 5 28 км пыль 9/5 600 м
[Cu med, cong Ac lent Ci sp]
+29.9 +24.3 72 +42 +44 опасность
перегрева
1016.9 1014.6
18 14.10 В 6 28 км в посл. час ливневой дождь 9/6 600 м
[Cu Sc Ac trans Ci sp]
+28.3 +23.6 76 +39 +40 очень
душно
1015.0 1012.7 +25.1 +30.4 1
21 14.10 В 5 28 км пыль 9/5 540 м
[Cu Sc Ac trans Ci sp]
+28.2 +23.2 74 +38 +38 очень
душно
1014.7 1012.4
00 15.10 В 5 28 км пыль 9/8 540 м
[Cu Sc Ci sp]
+27.6 +23.3 77 +37 +37 очень
душно
1015.7 1013.4 +25.5 +30.4
03 15.10 В 5 28 км пыль 9/6 540 м
[Cu Sc Ci sp]
+27.6 +23.7 79 +38 +38 очень
душно
1015.9 1013.6
06 15.10 В 5 28 км пыль {ливн. осадки} 9/3 540 м
[Cu med, cong Ci sp]
+27.0 +22.9 78 +36 +36 очень
душно
1014.9 1012.6 +25.5 +30.4
09 15.10 В 6 28 км пыль 9/4 500 м
[Cu med, cong Ci sp]
+27.4 +23.1 77 +37 +37 очень
душно
1014.9 1012.6
12 15.10 В 7 26 км пыль {ливн. осадки} 9/4 600 м
[Cu Sc As op Ci sp]
+28.1 +22.6 72 +37 +37 очень
душно
1015.8 1013.5 +26.9 +30.4 0.0
15 15.10 В 5 26 км пыль 9/3 540 м
[Cu Sc As trans Cs]
+29.1 +23.8 73 +40 +43 очень
душно
1016.2 1013.9
18 15.10 В 6 28 км пыль 8/4 600 м
[Cu med, cong Ci sp]
+30.1 +24.1 70 +42 +44 опасность
перегрева
1014.5 1012.2 +26.9 +30.4
21 15.10 В 7 28 км пыль 9/5 600 м
[Cu med, cong Ci sp]
+28.2 +24.2 79 +39 +40 очень
душно
1014.0 1011.7
00 16.10 В 6 28 км пыль 9/3 600 м
[Cu med, cong Ci sp]
+27.5 +23.5 79 +37 +37 очень
душно
1014.7 1012.4 +26.7 +30.4
03 16.10 В 7 28 км пыль 9/3 600 м
[Cu med, cong Ci sp]
+27.7 +23.5 78 +38 +38 очень
душно
1014.7 1012.4
06 16.10 В 6 28 км в посл. час ливневой дождь 8/4 540 м
[Cu med, cong Ci sp]
+27.3 +23.1 78 +37 +37 очень
душно
1013.5 1011.2 +26.7 +30.4 0.0
09 16.10 В 3 22 км осадки на расстоянии 5/5 540 м
[Cu Sc Ci sp]
+26.7 +23.2 81 +36 +36 очень
душно
1012.9 1010.6

 

Местоположение метеостанции V.C. Bird Int Airport (Антигуа и Барбуда): широта 17.12 долгота -61.78 высота над уровнем моря 10 м.

В архиве по умолчанию представлена погода в V.C. Bird Int Airport за последнюю неделю. Архивные данные за месяц целиком и за предыдущие месяцы, начиная с января 2011 года, Вы можете получить, выбрав интересующий диапазон дат из раскрывающегося списка и нажав кнопку "Ввод!".


*Определитесь, кто Вы:
робот инопланетянин человек

Внимание! Время в таблицах - всемирное. Для получения местного времени необходимо прибавить поправку, которая в V.C. Bird Int Airport равна -4 ч.

Смотрите также архив погоды в соседних городах и на ближайших метеорологических станциях:

Погода в V.W. Amory Airport (Сент-Китс и Невис) (87 км)
Погода в Le Raizet (Гваделупа) (96 км)
Погода в R.l. Bradshaw Airport (Сент-Китс и Невис) (98 км)
Погода в Juliana Airport (Нидерландские Антилы) (174 км)
Погода в Anguilla (Ангилья) (180 км)
Погода в Canefield Airport (Доминика) (181 км)
Погода в Melville Hall Airport (Доминика) (184 км)
Погода в Le Lamentin (Мартиника) (292 км)
Погода в Vigie (Сент-Люсия) (356 км)
Погода в Charlotte Amalie St. Thomas (Виргинские Острова) (364 км)

Пояснения к столбцам:

Ветер - указаны скорость ветра в м/с - средняя за 10 мин, порывы в срок и между сроками (в фигурных скобках) и направление, откуда дует ветер: С - северный, СВ - северо-восточный, В - восточный, ЮВ - юго-восточный, Ю - южный, ЮЗ - юго-западный, З - западный, СЗ - северо-западный.
Видимость - горизонтальная дальность видимости в метрах или километрах. При видимости от 1 до 10 км при отсутствии осадков обычно наблюдается дымка, при ухудшении видимости до 1 км и менее - туман. В сухую погоду видимость может ухудшаться дымом, пылью или мглою.
Явления - указаны атмосферные явления, наблюдавшиеся в срок или в последний час перед сроком; фигурными скобками обозначены явления, наблюдавшиеся между сроками (за 1-3 часа до срока); квадратными скобками обозначены град или гололедные отложения с указанием их диаметра в мм.
Облачность - указаны через наклонную черту общая и нижняя облачность в баллах и высота нижней границы облаков в метрах; квадратными скобками обозначены формы облаков: Ci - перистые, Cs - перисто-слоистые, Cc - перисто-кучевые, Ac - высококучевые, As - высокослоистые, Sc - слоисто-кучевые, Ns - слоисто-дождевые, Cu - кучевые, Cb - кучево-дождевые. Подробнее классификацию облаков см. в Атласе облаков (PDF).
T - Температура воздуха - температура, измеренная на высоте 2 м над землей.
Td - Температура точки росы - температура, при понижении до которой содержащийся в воздухе водяной пар достигнет насыщения.
f - Относительная влажность воздуха - влажноcть воздуха, измеренная на высоте 2 м над землей.
Te - Эффективная температура - температура, которую ощущает одетый по сезону человек в тени. Характеристика душности погоды. При расчете учитывается влияние влажности воздуха и скорости ветра на теплоощущения человека.
Tes - Эффективная температура на солнце - температура, которую ощущает человек, с поправкой на солнечный нагрев. Характеристика знойности погоды. Зависит от высоты солнца над горизонтом, облачности и скорости ветра. Ночью, в пасмурную погоду, а также при ветре 12 м/с и более поправка равна нулю.
P - Атмосферное давление - приведенное к уровню моря атмосферное давление.
Po - Атмосферное давление - измеренное на уровне метеостанции атмосферное давление.
Tmin - Минимальная температура - минимум температуры воздуха на высоте 2 м над землей.
Tmax - Максимальная температура - максимум температуры воздуха на высоте 2 м над землей.
R - Количество осадков - Количество выпавших осадков за период времени, мм. При наведении курсора мыши на число - период времени, за который выпало указанное количество осадков.
R24 - Количество осадков - Количество выпавших осадков за 24 часа, мм.
S - Снежный покров - Высота снежного покрова, см. При наведении курсора мыши на число - состояние снежного покрова и степень покрытия местности в баллах.